Weather in Onesti

Romania     46°15′21″N   26°46′32″E
temp.,
°C
wind,
m/s
gust,
m/s
humid.,
%
clouds,
%
prec.,
mm/h
press.,
hPa
HPBL,
m
24 january, mon
mon2423:00−7nnw61184100 0.3 1030756
02:00−7nnw51190100 0.8 1031800
05:00−7nnw51186100 0.5 1032771
08:00−8nnw51187100 0.8 1034808
11:00−6n61072100 0.2 1035894
14:00−4n6959100 0.3 10341048
17:00−5n486596 0.0 1034461
20:00−7nw2479100 0.0 1034159
25 january, tue
tue2523:00−7w2378100 0.0 1034119
02:00−9w247858 0.0 103479
05:00−9wsw347548 0.0 1032116
08:00−10wsw34780 0.0 103298
11:00−5w35500 0.0 1031432
14:00−3wsw454195 0.0 1028632
17:00−6wsw4760100 0.0 1027223
20:00−7wsw366599 0.0 1027255
26 january, wed
wed2623:00−6wsw476479 0.0 1026314
02:00−7wsw4864100 0.0 1025316
05:00−7wsw486596 0.0 1024319
08:00−7wsw486895 0.0 1024254
11:00−3w5757100 0.0 1024393
14:000w475397 0.0 1023866
17:00−3wsw347898 0.1 1025206
20:00−5wsw248197 0.6 1027198
27 january, thu
thu2723:00−6wsw348019 0.1 102796
02:00−8wsw347928 0.1 102782
05:00−8wsw33804 0.0 102662
08:00−7wsw357896 0.0 1025113
11:00−1wsw365777 0.0 1024421
14:00+2wsw5954100 0.0 1022551
17:000sw3669100 0.0 1020131
20:00−2wsw3677100 0.0 1020135
28 january, fri
fri2823:00−1wsw4876100 0.0 1018165
02:000wsw41072100 0.0 1016233
05:00+2wsw61366100 0.0 1015405
08:00+1wsw2270100 0.0 101525
11:00+5wsw49545 0.0 1015934
14:00+6w613507 0.0 10151497
17:00+2wnw511617 0.0 1017304
20:00+1w8166340 0.0 1018714